Regional Weather Roundup
Issued by NWS

Home | Current Version | Previous Version | Graphics & Text | Print | Product List | Glossary On
Versions: 1 2 3 4 5 6 7 8 9 10 11 12 13 14 15 16 17 18 19 20 21 22 23 24 25 26 27 28 29 30 31 32 33 34 35 36 37 38 39 40 41 42 43 44 45 46 47 48 49 50
000
ASUS43 KOAX 291702
RWRNE

WEATHER ROUNDUP FOR NEBRASKA
NATIONAL WEATHER SERVICE OMAHA NE
1200 PM CDT WED OCT 29 2014

NOTES: SATELLITE DATA IS BEING USED TO AUGMENT CLOUD COVER ABOVE
       12000 FEET.
       "FAIR" INDICATES FEW OR NO CLOUDS BELOW 12,000 FEET WITH NO
       SIGNIFICANT WEATHER AND/OR OBSTRUCTIONS TO VISIBILITY.

  * THESE STATIONS DO NOT REPORT WEATHER SUCH AS RAIN...SNOW OR FOG.

NEZ001>004-019>022-054>056-291800-
NEBRASKA PANHANDLE

CITY           SKY/WX    TMP DP  RH WIND       PRES   REMARKS
SCOTTSBLUFF    SUNNY     52  29  41 CALM      30.10F
ALLIANCE       SUNNY     58  27  30 W16G24    30.07F
CHADRON        SUNNY     53  26  35 W6        30.05F
KIMBALL        SUNNY     60  22  23 SW14      30.12F
SIDNEY         SUNNY     62  24  23 SW13      30.13F
$$

NEZ057>060-069>072-079>082-291800-
SOUTHWEST NEBRASKA

CITY           SKY/WX    TMP DP  RH WIND       PRES   REMARKS
NORTH PLATTE   SUNNY     55  26  32 S9        30.13F
IMPERIAL       SUNNY     55  28  35 CALM      30.13F
LEXINGTON      SUNNY     55  26  32 S13       30.16F
MCCOOK         SUNNY     53  28  38 E6        30.15F
OGALLALA       SUNNY     50  29  45 W5        30.12F
$$

NEZ005>010-023>029-035>040-094-291800-
NORTH CENTRAL NEBRASKA

CITY           SKY/WX    TMP DP  RH WIND       PRES   REMARKS
VALENTINE      SUNNY     53  25  33 SW15      30.07F
AINSWORTH      SUNNY     53  24  31 S15       30.08F
BROKEN BOW     SUNNY     53  26  35 S16G24    30.13F
O`NEILL        SUNNY     50  32  49 S12       30.15F
ORD            SUNNY     50  30  46 SE8       30.15F
THEDFORD       SUNNY     56  27  32 SW14      30.10S
$$

NEZ041-046>049-061>064-073>077-083>087-291800-
SOUTH CENTRAL NEBRASKA

CITY           SKY/WX    TMP DP  RH WIND       PRES   REMARKS
GRAND ISLAND   SUNNY     52  32  46 SE10      30.20F
AURORA         SUNNY     50  32  49 SE7       30.20F
HASTINGS       SUNNY     51  30  44 S9        30.19F
HEBRON         SUNNY     52  32  46 SE7       30.23F
HOLDREGE       SUNNY     54  24  31 S15G22    30.16F
KEARNEY *      SUNNY     52  30  43 SE12      30.18F
YORK           SUNNY     48  32  53 S6        30.22F
$$

NEZ011>018-030>034-042>045-291800-
NORTHEAST NEBRASKA

CITY           SKY/WX    TMP DP  RH WIND       PRES   REMARKS
NORFOLK        SUNNY     47  32  56 S6        30.20F
ALBION         SUNNY     48  32  54 SE8       30.19F
BLAIR          SUNNY     46  32  57 W3        30.23F
COLUMBUS *       N/A    N/A N/A N/A MISG        N/A
FREMONT        SUNNY     47  32  55 CALM      30.24F
TEKAMAH        SUNNY     48  31  51 CALM      30.23F
WAYNE          SUNNY     46  31  56 CALM      30.21F
$$

NEZ050>053-065>068-078-088>093-291800-
SOUTHEAST NEBRASKA

CITY           SKY/WX    TMP DP  RH WIND       PRES   REMARKS
LINCOLN        SUNNY     49  33  54 CALM      30.25F
OMAHA EPPLEY   SUNNY     48  32  53 E5        30.25F
BEATRICE       SUNNY     50  34  53 S5        30.25S
FALLS CITY     SUNNY     53  34  48 NW7       30.25F
NEBRASKA CITY  SUNNY     49  28  45 W5        30.25F
PLATTSMOUTH    SUNNY     48  31  52 CALM      30.24F
$$

NEZ044-045-051>053-067-291800-
OMAHA AREA

CITY           SKY/WX    TMP DP  RH WIND       PRES   REMARKS
OMAHA EPPLEY   SUNNY     48  32  53 E5        30.25F
BLAIR          SUNNY     46  32  57 W3        30.23F
FREMONT        SUNNY     47  32  55 CALM      30.24F
MILLARD        SUNNY     48  32  54 CALM      30.24F
OFFUTT AFB     SUNNY     49  34  57 W5        30.24F
PLATTSMOUTH    SUNNY     48  31  52 CALM      30.24F
WAHOO          FAIR      49  32  50 NW3       30.24S
$$



USA.gov is the U.S. government's official web portal to all federal, state and local government web resources and services.